User: anonymous   Login
Location: Maiden
(35.5760°N, 81.2120°W)
Time: 11:06:18
(UTC-04:00)
Language:

Courier 1B Rocket - Orbit

View from above orbital plane
View from above orbital plane
View from above satellite
View from above satellite

Ground track
Ground track

The orbit data is extracted from the following two-line orbital elements,

1    59U 60013B   20217.50287246  .00000104  00000-0  21646-4 0  9998
2    59  28.2504 331.3890 0189304 329.4662  29.4980 13.52978181953623
Epoch (UTC): 04 August 2020 12:04:08
Eccentricity: 0.0189304
inclination: 28.2504°
perigee height: 920 km
apogee height: 1202 km
right ascension of ascending node: 331.3890°
argument of perigee: 329.4662°
revolutions per day: 13.52978181
mean anomaly at epoch: 29.4980°
orbit number at epoch: 95362

The dashed part of the orbit path shows where the satellite is in the earth's shadow,  

DLR